| time (UTC) | temp F | wind direction | speed knots | gust knots | rain 1hr in | rain 24hr in | rain mn in | humidity % | barometer mb |
| 20260904040304 | 69 | 235 | 7.8 | 13.9 | 0.00 | 0.00 | 0.00 | 83 | 1014.0 |
| 20260904035803 | 69 | 237 | 7.8 | 13.9 | 0.00 | 0.00 | 0.00 | 83 | 1014.0 |
| 20260904035547 | 69 | 241 | 4.3 | 14.8 | 0.00 | 0.00 | 0.00 | 83 | 1014.1 |
| 20260904035430 | 69 | 224 | 6.1 | 13.9 | 0.00 | 0.00 | 0.00 | 83 | 1014.0 |
| 20260904034305 | 69 | 220 | 8.7 | 14.8 | 0.00 | 0.00 | 0.00 | 83 | 1014.1 |
| 20260904033803 | 69 | 230 | 7.8 | 15.6 | 0.00 | 0.00 | 0.00 | 84 | 1014.2 |
| 20260904033304 | 69 | 234 | 8.7 | 15.6 | 0.00 | 0.00 | 0.00 | 84 | 1014.2 |
| 20260904033154 | 69 | 262 | 9.6 | 15.6 | 0.00 | 0.00 | 0.00 | 84 | 1014.2 |
| 20260904032305 | 69 | 228 | 9.6 | 13.9 | 0.00 | 0.00 | 0.00 | 84 | 1014.2 |
| 20260904031804 | 69 | 207 | 8.7 | 13.9 | 0.00 | 0.00 | 0.00 | 84 | 1014.3 |
| 20260904031304 | 69 | 223 | 6.1 | 16.5 | 0.00 | 0.00 | 0.00 | 84 | 1014.4 |
| 20260904030802 | 69 | 241 | 6.1 | 16.5 | 0.00 | 0.00 | 0.00 | 84 | 1014.4 |
| 20260904030302 | 69 | 241 | 7.0 | 16.5 | 0.00 | 0.00 | 0.00 | 84 | 1014.2 |
| 20260904030150 | 69 | 231 | 10.4 | 16.5 | 0.00 | 0.00 | 0.00 | 84 | 1014.3 |
| 20260904025305 | 69 | 241 | 8.7 | 13.9 | 0.00 | 0.00 | 0.00 | 84 | 1014.4 |
| 20260904024802 | 69 | 210 | 9.6 | 15.6 | 0.00 | 0.00 | 0.00 | 84 | 1014.4 |
| 20260904024648 | 69 | 227 | 8.7 | 15.6 | 0.00 | 0.00 | 0.00 | 84 | 1014.5 |
| 20260904023803 | 69 | 240 | 6.1 | 15.6 | 0.00 | 0.00 | 0.00 | 84 | 1014.5 |
| 20260904023303 | 69 | 227 | 7.0 | 15.6 | 0.00 | 0.00 | 0.00 | 84 | 1014.6 |
| 20260904022804 | 69 | 228 | 9.6 | 14.8 | 0.00 | 0.00 | 0.00 | 84 | 1014.6 |
| 20260904022649 | 69 | 223 | 9.6 | 14.8 | 0.00 | 0.00 | 0.00 | 84 | 1014.6 |
| 20260904021803 | 69 | 224 | 7.0 | 12.2 | 0.00 | 0.00 | 0.00 | 83 | 1014.7 |
| 20260904021302 | 69 | 214 | 7.8 | 13.0 | 0.00 | 0.00 | 0.00 | 83 | 1014.7 |
| 20260904020802 | 69 | 241 | 7.8 | 13.0 | 0.00 | 0.00 | 0.00 | 83 | 1014.9 |
| 20260904020305 | 69 | 235 | 8.7 | 13.0 | 0.00 | 0.00 | 0.00 | 83 | 1014.8 |
| 20260904015805 | 70 | 206 | 6.1 | 13.0 | 0.00 | 0.00 | 0.00 | 83 | 1014.9 |
| 20260904015306 | 69 | 197 | 7.0 | 13.9 | 0.00 | 0.00 | 0.00 | 83 | 1015.0 |
| 20260904014803 | 70 | 217 | 8.7 | 13.9 | 0.00 | 0.00 | 0.00 | 83 | 1015.1 |
| 20260904014649 | 70 | 210 | 5.2 | 12.2 | 0.00 | 0.00 | 0.00 | 83 | 1015.3 |
| 20260904013803 | 70 | 245 | 7.8 | 14.8 | 0.00 | 0.00 | 0.00 | 83 | 1015.2 |
| 20260904013302 | 70 | 213 | 9.6 | 14.8 | 0.00 | 0.00 | 0.00 | 83 | 1015.4 |
| 20260904012802 | 70 | 196 | 9.6 | 13.9 | 0.00 | 0.00 | 0.00 | 83 | 1015.4 |
| 20260904012646 | 70 | 203 | 8.7 | 12.2 | 0.00 | 0.00 | 0.00 | 83 | 1015.4 |
| 20260904011802 | 69 | 234 | 7.8 | 12.2 | 0.00 | 0.00 | 0.00 | 83 | 1015.5 |
| 20260904011301 | 69 | 240 | 6.1 | 12.2 | 0.00 | 0.00 | 0.00 | 83 | 1015.5 |
| 20260904010801 | 69 | 214 | 7.0 | 11.3 | 0.00 | 0.00 | 0.00 | 84 | 1015.5 |
| 20260904010301 | 69 | 231 | 5.2 | 15.6 | 0.00 | 0.00 | 0.00 | 84 | 1015.6 |
| 20260904010149 | 69 | 212 | 6.1 | 15.6 | 0.00 | 0.00 | 0.00 | 83 | 1015.7 |
| 20260904005543 | 69 | 226 | 7.0 | 14.8 | 0.00 | 0.00 | 0.00 | 83 | 1015.7 |
| 20260904005428 | 69 | 238 | 6.1 | 14.8 | 0.00 | 0.00 | 0.00 | 83 | 1015.8 |
| 20260904004300 | 69 | 240 | 8.7 | 14.8 | 0.00 | 0.00 | 0.00 | 84 | 1015.8 |
| 20260904004144 | 69 | 188 | 5.2 | 12.2 | 0.00 | 0.00 | 0.00 | 84 | 1015.7 |
| 20260904003303 | 69 | 164 | 5.2 | 13.0 | 0.00 | 0.00 | 0.00 | 84 | 1015.9 |
| 20260904002800 | 69 | 234 | 7.8 | 13.0 | 0.00 | 0.00 | 0.00 | 84 | 1016.1 |
| 20260904002300 | 69 | 202 | 6.1 | 12.2 | 0.00 | 0.00 | 0.00 | 84 | 1016.0 |
| 20260904001759 | 69 | 221 | 6.1 | 10.4 | 0.00 | 0.00 | 0.00 | 84 | 1016.0 |
| 20260904001642 | 69 | 206 | 5.2 | 12.2 | 0.00 | 0.00 | 0.00 | 84 | 1016.0 |
| 20260904000804 | 69 | 216 | 7.8 | 12.2 | 0.00 | 0.00 | 0.00 | 84 | 1016.0 |
| 20260904000303 | 69 | 206 | 7.8 | 11.3 | 0.00 | 0.00 | 0.00 | 84 | 1016.0 |
| 20260903235802 | 69 | 214 | 7.0 | 12.2 | 0.00 | 0.00 | 0.00 | 84 | 1016.1 |
| 20260903235639 | 69 | 161 | 7.8 | 13.0 | 0.00 | 0.00 | 0.00 | 84 | 1016.1 |
| 20260903234759 | 69 | 193 | 7.0 | 13.0 | 0.00 | 0.00 | 0.00 | 84 | 1016.3 |
| 20260903234259 | 69 | 224 | 7.0 | 13.0 | 0.00 | 0.00 | 0.00 | 84 | 1016.2 |
| 20260903233800 | 70 | 219 | 5.2 | 12.2 | 0.00 | 0.00 | 0.00 | 84 | 1016.3 |
| 20260903233258 | 70 | 210 | 5.2 | 9.6 | 0.00 | 0.00 | 0.00 | 84 | 1016.2 |
| 20260903233136 | 70 | 251 | 6.1 | 13.9 | 0.00 | 0.00 | 0.00 | 83 | 1016.4 |
| 20260903232259 | 70 | 214 | 7.8 | 13.9 | 0.00 | 0.00 | 0.00 | 84 | 1016.4 |
| 20260903231758 | 70 | 244 | 7.0 | 11.3 | 0.00 | 0.00 | 0.00 | 84 | 1016.5 |
| 20260903231257 | 70 | 250 | 7.0 | 12.2 | 0.00 | 0.00 | 0.00 | 83 | 1016.6 |
| 20260903230800 | 70 | 240 | 7.0 | 12.2 | 0.00 | 0.00 | 0.00 | 83 | 1016.6 |
| 20260903230258 | 70 | 237 | 5.2 | 11.3 | 0.00 | 0.00 | 0.00 | 83 | 1016.6 |
| 20260903225758 | 70 | 245 | 6.1 | 12.2 | 0.00 | 0.00 | 0.00 | 83 | 1016.5 |
| 20260903225256 | 70 | 228 | 5.2 | 12.2 | 0.00 | 0.00 | 0.00 | 83 | 1016.6 |
| 20260903225202 | 70 | 237 | 5.2 | 12.2 | 0.00 | 0.00 | 0.00 | 83 | 1016.8 |
| 20260903224256 | 70 | 233 | 7.8 | 12.2 | 0.00 | 0.00 | 0.00 | 83 | 1016.9 |
| 20260903223758 | 70 | 231 | 6.1 | 11.3 | 0.00 | 0.00 | 0.00 | 83 | 1016.9 |
| 20260903223258 | 69 | 234 | 5.2 | 12.2 | 0.00 | 0.00 | 0.00 | 83 | 1016.8 |
| 20260903222756 | 69 | 243 | 7.8 | 12.2 | 0.00 | 0.00 | 0.00 | 83 | 1016.9 |
| 20260903222257 | 69 | 213 | 4.3 | 10.4 | 0.00 | 0.00 | 0.00 | 83 | 1016.9 |
| 20260903222139 | 69 | 237 | 6.1 | 12.2 | 0.00 | 0.00 | 0.00 | 83 | 1016.8 |
| 20260903221256 | 69 | 209 | 7.0 | 13.0 | 0.00 | 0.00 | 0.00 | 83 | 1016.9 |
| 20260903221141 | 69 | 241 | 6.1 | 13.0 | 0.00 | 0.00 | 0.00 | 83 | 1016.9 |
| 20260903220255 | 70 | 255 | 7.8 | 13.0 | 0.00 | 0.00 | 0.00 | 83 | 1017.0 |
| 20260903220149 | 70 | 220 | 7.8 | 12.2 | 0.00 | 0.00 | 0.00 | 83 | 1017.1 |
| 20260903215258 | 70 | 230 | 6.1 | 13.0 | 0.00 | 0.00 | 0.00 | 83 | 1017.0 |
| 20260903214757 | 70 | 226 | 7.0 | 13.0 | 0.00 | 0.00 | 0.00 | 83 | 1017.1 |
| 20260903214638 | 70 | 252 | 7.8 | 11.3 | 0.00 | 0.00 | 0.00 | 83 | 1017.1 |
| 20260903213755 | 70 | 223 | 6.1 | 11.3 | 0.00 | 0.00 | 0.00 | 83 | 1017.1 |
| 20260903213257 | 70 | 185 | 4.3 | 10.4 | 0.00 | 0.00 | 0.00 | 83 | 1017.1 |
| 20260903212756 | 70 | 224 | 5.2 | 11.3 | 0.00 | 0.00 | 0.00 | 83 | 1017.2 |
| 20260903212256 | 70 | 247 | 6.1 | 12.2 | 0.00 | 0.00 | 0.00 | 83 | 1017.3 |
| 20260903211755 | 70 | 212 | 6.1 | 12.2 | 0.00 | 0.00 | 0.00 | 83 | 1017.6 |
| 20260903211256 | 69 | 219 | 7.0 | 12.2 | 0.00 | 0.00 | 0.00 | 83 | 1017.6 |
| 20260903210754 | 69 | 259 | 8.7 | 13.9 | 0.00 | 0.00 | 0.00 | 84 | 1017.7 |
| 20260903210532 | 69 | 235 | 5.2 | 13.0 | 0.00 | 0.00 | 0.00 | 84 | 1017.6 |
| 20260903210421 | 69 | 219 | 6.1 | 13.9 | 0.00 | 0.00 | 0.00 | 84 | 1017.6 |
| 20260903205254 | 69 | 202 | 7.0 | 13.0 | 0.00 | 0.00 | 0.00 | 84 | 1017.6 |
| 20260903204756 | 69 | 235 | 5.2 | 11.3 | 0.00 | 0.00 | 0.00 | 85 | 1017.6 |
| 20260903204253 | 69 | 247 | 6.1 | 11.3 | 0.00 | 0.00 | 0.00 | 85 | 1017.7 |
| 20260903203755 | 69 | 224 | 5.2 | 8.7 | 0.00 | 0.00 | 0.00 | 85 | 1017.7 |
| 20260903203255 | 69 | 207 | 4.3 | 8.7 | 0.00 | 0.00 | 0.00 | 85 | 1017.5 |
| 20260903202756 | 69 | 206 | 4.3 | 8.7 | 0.00 | 0.00 | 0.00 | 85 | 1017.5 |
| 20260903202254 | 69 | 220 | 4.3 | 8.7 | 0.00 | 0.00 | 0.00 | 85 | 1017.5 |
| 20260903201755 | 69 | 213 | 5.2 | 9.6 | 0.00 | 0.00 | 0.00 | 85 | 1017.6 |
| 20260903201256 | 69 | 219 | 4.3 | 9.6 | 0.00 | 0.00 | 0.00 | 85 | 1017.5 |
| 20260903200755 | 69 | 237 | 5.2 | 8.7 | 0.00 | 0.00 | 0.00 | 84 | 1017.7 |
| 20260903200253 | 69 | 230 | 4.3 | 8.7 | 0.00 | 0.00 | 0.00 | 84 | 1017.6 |
| 20260903195753 | 69 | 186 | 5.2 | 8.7 | 0.00 | 0.00 | 0.00 | 83 | 1017.7 |
| 20260903195255 | 70 | 190 | 4.3 | 9.6 | 0.00 | 0.00 | 0.00 | 83 | 1017.6 |
| 20260903194752 | 70 | 189 | 4.3 | 9.6 | 0.00 | 0.00 | 0.00 | 82 | 1017.6 |
| 20260903194646 | 70 | 213 | 6.1 | 10.4 | 0.00 | 0.00 | 0.00 | 81 | 1017.7 |
| 20260903194036 | 71 | 274 | 7.0 | 11.3 | 0.00 | 0.00 | 0.00 | 80 | 1017.6 |
| 20260903193923 | 70 | 250 | 6.1 | 11.3 | 0.00 | 0.00 | 0.00 | 81 | 1017.7 |
| 20260903192753 | 71 | 266 | 5.2 | 11.3 | 0.00 | 0.00 | 0.00 | 80 | 1017.7 |
| 20260903192253 | 71 | 221 | 7.0 | 11.3 | 0.00 | 0.00 | 0.00 | 79 | 1017.5 |
| 20260903192136 | 71 | 237 | 5.2 | 11.3 | 0.00 | 0.00 | 0.00 | 79 | 1017.7 |
| 20260903191252 | 71 | 212 | 5.2 | 13.0 | 0.00 | 0.00 | 0.00 | 78 | 1017.8 |
| 20260903190751 | 71 | 231 | 7.0 | 13.0 | 0.00 | 0.00 | 0.00 | 77 | 1017.7 |
| 20260903190252 | 71 | 247 | 6.1 | 8.7 | 0.00 | 0.00 | 0.00 | 77 | 1017.8 |
| 20260903185753 | 71 | 199 | 5.2 | 9.6 | 0.00 | 0.00 | 0.00 | 77 | 1017.7 |
| 20260903185253 | 71 | 248 | 6.1 | 9.6 | 0.00 | 0.00 | 0.00 | 77 | 1017.7 |
| 20260903185131 | 71 | 224 | 5.2 | 8.7 | 0.00 | 0.00 | 0.00 | 77 | 1017.6 |
| 20260903184251 | 71 | 217 | 6.1 | 9.6 | 0.00 | 0.00 | 0.00 | 77 | 1017.7 |
| 20260903183750 | 71 | 247 | 6.1 | 9.6 | 0.00 | 0.00 | 0.00 | 77 | 1017.6 |
| 20260903183633 | 71 | 214 | 5.2 | 8.7 | 0.00 | 0.00 | 0.00 | 77 | 1017.5 |
| 20260903182750 | 71 | 240 | 5.2 | 8.7 | 0.00 | 0.00 | 0.00 | 77 | 1017.5 |
| 20260903182252 | 71 | 213 | 4.3 | 5.2 | 0.00 | 0.00 | 0.00 | 76 | 1017.5 |
| 20260903181752 | 72 | 220 | 4.3 | 5.2 | 0.00 | 0.00 | 0.00 | 76 | 1017.7 |
| 20260903181252 | 72 | 223 | 4.3 | 6.1 | 0.00 | 0.00 | 0.00 | 76 | 1017.7 |
| 20260903180752 | 72 | 223 | 3.5 | 6.1 | 0.00 | 0.00 | 0.00 | 75 | 1017.7 |
| 20260903180632 | 72 | 227 | 3.5 | 4.3 | 0.00 | 0.00 | 0.00 | 75 | 1017.7 |
| 20260903175752 | 72 | 268 | 2.6 | 5.2 | 0.00 | 0.00 | 0.00 | 74 | 1017.7 |
| 20260903175251 | 72 | 271 | 2.6 | 6.1 | 0.00 | 0.00 | 0.00 | 74 | 1017.7 |
| 20260903174749 | 72 | 243 | 2.6 | 6.1 | 0.00 | 0.00 | 0.00 | 74 | 1017.6 |
| 20260903174251 | 72 | 240 | 2.6 | 4.3 | 0.00 | 0.00 | 0.00 | 74 | 1017.7 |
| 20260903173750 | 73 | 275 | 2.6 | 9.6 | 0.00 | 0.00 | 0.00 | 73 | 1017.7 |
| 20260903173637 | 73 | 233 | 6.1 | 9.6 | 0.00 | 0.00 | 0.00 | 73 | 1017.8 |
| 20260903173137 | 73 | 230 | 4.3 | 10.4 | 0.00 | 0.00 | 0.00 | 72 | 1017.7 |
| 20260903172249 | 73 | 227 | 5.2 | 10.4 | 0.00 | 0.00 | 0.00 | 72 | 1017.6 |
| 20260903171749 | 73 | 230 | 5.2 | 8.7 | 0.00 | 0.00 | 0.00 | 72 | 1017.8 |
| 20260903171248 | 73 | 293 | 3.5 | 11.3 | 0.00 | 0.00 | 0.00 | 72 | 1017.7 |
| 20260903170749 | 73 | 268 | 6.1 | 11.3 | 0.00 | 0.00 | 0.00 | 71 | 1017.6 |
| 20260903170635 | 73 | 268 | 3.5 | 10.4 | 0.00 | 0.00 | 0.00 | 71 | 1017.7 |
| 20260903165749 | 74 | 257 | 5.2 | 10.4 | 0.00 | 0.00 | 0.00 | 71 | 1017.7 |
| 20260903165248 | 74 | 268 | 3.5 | 9.6 | 0.00 | 0.00 | 0.00 | 70 | 1017.7 |
| 20260903164747 | 74 | 264 | 6.1 | 13.9 | 0.00 | 0.00 | 0.00 | 70 | 1017.8 |
| 20260903164250 | 74 | 271 | 5.2 | 13.9 | 0.00 | 0.00 | 0.00 | 70 | 1017.9 |
| 20260903163749 | 74 | 266 | 7.8 | 14.8 | 0.00 | 0.00 | 0.00 | 70 | 1018.0 |
| 20260903163249 | 74 | 281 | 7.0 | 14.8 | 0.00 | 0.00 | 0.00 | 70 | 1018.0 |
| 20260903162749 | 74 | 298 | 5.2 | 13.0 | 0.00 | 0.00 | 0.00 | 69 | 1017.6 |
| 20260903162250 | 74 | 269 | 6.1 | 13.0 | 0.00 | 0.00 | 0.00 | 68 | 1017.6 |
| 20260903161745 | 75 | 248 | 9.6 | 13.9 | 0.00 | 0.00 | 0.00 | 68 | 1017.7 |
| 20260903161244 | 75 | 217 | 9.6 | 13.9 | 0.00 | 0.00 | 0.00 | 67 | 1017.6 |
| 20260903160736 | 75 | 247 | 6.1 | 13.9 | 0.00 | 0.00 | 0.00 | 68 | 1017.7 |
| 20260903160236 | 75 | 252 | 8.7 | 13.9 | 0.00 | 0.00 | 0.00 | 67 | 1017.7 |
| 20260903155734 | 75 | 279 | 7.8 | 14.8 | 0.00 | 0.00 | 0.00 | 66 | 1017.8 |
| 20260903155231 | 75 | 212 | 7.0 | 14.8 | 0.00 | 0.00 | 0.00 | 67 | 1017.8 |
| 20260903154732 | 76 | 268 | 6.1 | 13.9 | 0.00 | 0.00 | 0.00 | 65 | 1017.9 |
| 20260903154231 | 76 | 266 | 7.0 | 17.4 | 0.00 | 0.00 | 0.00 | 67 | 1017.8 |
| 20260903153731 | 75 | 282 | 8.7 | 17.4 | 0.00 | 0.00 | 0.00 | 66 | 1017.8 |
| 20260903153231 | 75 | 271 | 9.6 | 14.8 | 0.00 | 0.00 | 0.00 | 67 | 1017.8 |
| 20260903152730 | 74 | 259 | 7.0 | 13.0 | 0.00 | 0.00 | 0.00 | 67 | 1017.7 |
| 20260903152230 | 75 | 271 | 8.7 | 17.4 | 0.00 | 0.00 | 0.00 | 67 | 1017.8 |
| 20260903152114 | 75 | 255 | 7.0 | 17.4 | 0.00 | 0.00 | 0.00 | 67 | 1017.9 |
| 20260903151232 | 75 | 252 | 7.0 | 16.5 | 0.00 | 0.00 | 0.00 | 68 | 1017.9 |
| 20260903150732 | 74 | 266 | 12.2 | 14.8 | 0.00 | 0.00 | 0.00 | 67 | 1018.0 |
| 20260903150231 | 75 | 279 | 9.6 | 13.9 | 0.00 | 0.00 | 0.00 | 67 | 1017.8 |
| 20260903145732 | 75 | 219 | 7.0 | 13.0 | 0.00 | 0.00 | 0.00 | 68 | 1017.9 |
| 20260903145613 | 74 | 251 | 7.0 | 15.6 | 0.00 | 0.00 | 0.00 | 68 | 1018.0 |
| 20260903144731 | 75 | 245 | 9.6 | 15.6 | 0.00 | 0.00 | 0.00 | 68 | 1018.0 |
| 20260903144231 | 75 | 210 | 5.2 | 13.0 | 0.00 | 0.00 | 0.00 | 69 | 1017.9 |
| 20260903144114 | 74 | 276 | 6.1 | 13.0 | 0.00 | 0.00 | 0.00 | 68 | 1017.8 |
| 20260903143230 | 75 | 266 | 6.1 | 13.0 | 0.00 | 0.00 | 0.00 | 67 | 1017.9 |
| 20260903142729 | 75 | 233 | 7.0 | 17.4 | 0.00 | 0.00 | 0.00 | 66 | 1017.9 |
| 20260903142229 | 76 | 286 | 12.2 | 17.4 | 0.00 | 0.00 | 0.00 | 65 | 1017.8 |
| 20260903141732 | 78 | 220 | 9.6 | 18.2 | 0.00 | 0.00 | 0.00 | 65 | 1017.7 |
| 20260903141233 | 77 | 254 | 13.0 | 18.2 | 0.00 | 0.00 | 0.00 | 67 | 1017.7 |
| 20260903140730 | 76 | 255 | 9.6 | 15.6 | 0.00 | 0.00 | 0.00 | 68 | 1017.9 |
| 20260903140618 | 75 | 274 | 7.8 | 15.6 | 0.00 | 0.00 | 0.00 | 69 | 1017.8 |
| 20260903135732 | 74 | 247 | 7.8 | 13.9 | 0.00 | 0.00 | 0.00 | 69 | 1017.9 |
| 20260903135231 | 74 | 224 | 7.0 | 14.8 | 0.00 | 0.00 | 0.00 | 69 | 1017.9 |
| 20260903134730 | 74 | 247 | 7.0 | 14.8 | 0.00 | 0.00 | 0.00 | 69 | 1017.9 |
| 20260903134627 | 74 | 321 | 8.7 | 14.8 | 0.00 | 0.00 | 0.00 | 69 | 1017.9 |
| 20260903133733 | 74 | 255 | 4.3 | 15.6 | 0.00 | 0.00 | 0.00 | 70 | 1017.9 |
| 20260903133232 | 74 | 269 | 8.7 | 15.6 | 0.00 | 0.00 | 0.00 | 69 | 1018.0 |
| 20260903132731 | 74 | 244 | 8.7 | 16.5 | 0.00 | 0.00 | 0.00 | 69 | 1017.9 |
| 20260903132229 | 75 | 257 | 7.0 | 16.5 | 0.00 | 0.00 | 0.00 | 69 | 1017.7 |
| 20260903131728 | 75 | 282 | 9.6 | 18.2 | 0.00 | 0.00 | 0.00 | 69 | 1017.7 |
| 20260903131228 | 75 | 272 | 11.3 | 18.2 | 0.00 | 0.00 | 0.00 | 68 | 1017.8 |
| 20260903130728 | 75 | 203 | 7.8 | 15.6 | 0.00 | 0.00 | 0.00 | 69 | 1017.7 |
| 20260903130226 | 74 | 278 | 6.1 | 12.2 | 0.00 | 0.00 | 0.00 | 72 | 1017.7 |
| 20260903125725 | 73 | 272 | 4.3 | 17.4 | 0.00 | 0.00 | 0.00 | 72 | 1017.8 |
| 20260903125225 | 73 | 243 | 11.3 | 17.4 | 0.00 | 0.00 | 0.00 | 71 | 1017.9 |
| 20260903124728 | 74 | 255 | 7.8 | 15.6 | 0.00 | 0.00 | 0.00 | 73 | 1017.8 |
| 20260903124225 | 73 | 271 | 5.2 | 14.8 | 0.00 | 0.00 | 0.00 | 74 | 1017.7 |
| 20260903123722 | 73 | 252 | 5.2 | 17.4 | 0.00 | 0.00 | 0.00 | 73 | 1017.7 |
| 20260903123221 | 73 | 230 | 8.7 | 17.4 | 0.00 | 0.00 | 0.00 | 73 | 1017.9 |
| 20260903122723 | 73 | 252 | 7.0 | 17.4 | 0.00 | 0.00 | 0.00 | 74 | 1017.8 |
| 20260903122220 | 73 | 285 | 11.3 | 17.4 | 0.00 | 0.00 | 0.00 | 72 | 1017.8 |
| 20260903121720 | 73 | 258 | 8.7 | 16.5 | 0.00 | 0.00 | 0.00 | 71 | 1017.7 |
| 20260903121218 | 74 | 254 | 10.4 | 16.5 | 0.00 | 0.00 | 0.00 | 70 | 1017.6 |
| 20260903120718 | 73 | 255 | 7.0 | 15.6 | 0.00 | 0.00 | 0.00 | 73 | 1017.4 |
| 20260903120217 | 72 | 255 | 8.7 | 20.9 | 0.00 | 0.00 | 0.00 | 73 | 1017.7 |
| 20260903115722 | 72 | 259 | 8.7 | 20.9 | 0.00 | 0.00 | 0.00 | 73 | 1017.8 |
| 20260903115214 | 72 | 240 | 13.9 | 20.0 | 0.00 | 0.00 | 0.00 | 72 | 1017.8 |
| 20260903114719 | 73 | 272 | 13.0 | 20.0 | 0.00 | 0.00 | 0.00 | 72 | 1017.9 |
| 20260903114553 | 74 | 254 | 10.4 | 22.6 | 0.00 | 0.00 | 0.00 | 72 | 1017.9 |
| 20260903113710 | 74 | 237 | 9.6 | 22.6 | 0.00 | 0.00 | 0.00 | 73 | 1017.8 |
| 20260903113211 | 73 | 262 | 13.0 | 18.2 | 0.00 | 0.00 | 0.00 | 74 | 1018.0 |
| 20260903112712 | 73 | 245 | 7.0 | 15.6 | 0.00 | 0.00 | 0.00 | 77 | 1018.0 |
| 20260903112204 | 72 | 275 | 7.0 | 15.6 | 0.00 | 0.00 | 0.00 | 78 | 1018.0 |
| 20260903111704 | 71 | 259 | 9.6 | 20.0 | 0.00 | 0.00 | 0.00 | 79 | 1018.0 |
| 20260903111204 | 70 | 250 | 9.6 | 20.0 | 0.00 | 0.00 | 0.00 | 79 | 1017.9 |
| 20260903110954 | 70 | 268 | 5.2 | 16.5 | 0.00 | 0.00 | 0.00 | 82 | 1018.0 |
| 20260903110833 | 70 | 241 | 6.1 | 14.8 | 0.00 | 0.00 | 0.00 | 81 | 1018.0 |
| 20260903105705 | 69 | 200 | 7.8 | 16.5 | 0.00 | 0.00 | 0.00 | 81 | 1018.0 |
| 20260903105204 | 69 | 271 | 7.8 | 14.8 | 0.00 | 0.00 | 0.00 | 82 | 1018.0 |
| 20260903105056 | 69 | 243 | 8.7 | 13.9 | 0.00 | 0.00 | 0.00 | 84 | 1018.0 |
| 20260903104204 | 68 | 265 | 7.0 | 13.0 | 0.00 | 0.00 | 0.00 | 85 | 1018.0 |
| 20260903103707 | 68 | 292 | 7.8 | 13.0 | 0.00 | 0.00 | 0.00 | 86 | 1018.1 |
| 20260903103204 | 68 | 269 | 6.1 | 12.2 | 0.00 | 0.00 | 0.00 | 86 | 1018.1 |
| 20260903102704 | 67 | 257 | 7.8 | 12.2 | 0.00 | 0.00 | 0.00 | 86 | 1018.1 |
| 20260903102206 | 67 | 279 | 7.0 | 11.3 | 0.00 | 0.00 | 0.00 | 86 | 1018.1 |
| 20260903101717 | 68 | 257 | 7.0 | 12.2 | 0.00 | 0.00 | 0.00 | 86 | 1018.0 |
| 20260903101216 | 68 | 278 | 7.0 | 13.9 | 0.00 | 0.00 | 0.00 | 85 | 1018.1 |
| 20260903100716 | 68 | 338 | 7.8 | 13.9 | 0.00 | 0.00 | 0.00 | 84 | 1018.0 |
| 20260903100202 | 68 | 258 | 6.1 | 15.6 | 0.00 | 0.00 | 0.00 | 84 | 1017.9 |
| 20260903095704 | 68 | 269 | 6.1 | 15.6 | 0.00 | 0.00 | 0.00 | 84 | 1017.8 |
| 20260903095204 | 68 | 216 | 9.6 | 13.0 | 0.00 | 0.00 | 0.00 | 84 | 1017.7 |
| 20260903094704 | 68 | 178 | 5.2 | 13.0 | 0.00 | 0.00 | 0.00 | 83 | 1017.8 |
| 20260903094203 | 68 | 223 | 6.1 | 15.6 | 0.00 | 0.00 | 0.00 | 83 | 1017.8 |
| 20260903093704 | 68 | 248 | 8.7 | 15.6 | 0.00 | 0.00 | 0.00 | 84 | 1017.8 |
| 20260903093216 | 67 | 221 | 6.1 | 13.0 | 0.00 | 0.00 | 0.00 | 83 | 1017.8 |
| 20260903092706 | 67 | 250 | 7.0 | 12.2 | 0.00 | 0.00 | 0.00 | 83 | 1017.7 |
| 20260903092205 | 67 | 285 | 7.8 | 12.2 | 0.00 | 0.00 | 0.00 | 83 | 1017.7 |
| 20260903091703 | 67 | 244 | 7.8 | 12.2 | 0.00 | 0.00 | 0.00 | 82 | 1017.5 |
| 20260903091204 | 67 | 217 | 6.1 | 12.2 | 0.00 | 0.00 | 0.00 | 82 | 1017.4 |
| 20260903090704 | 67 | 196 | 7.0 | 12.2 | 0.00 | 0.00 | 0.00 | 83 | 1017.4 |
| 20260903090203 | 67 | 255 | 8.7 | 12.2 | 0.00 | 0.00 | 0.00 | 83 | 1017.4 |
| 20260903085706 | 67 | 230 | 8.7 | 15.6 | 0.00 | 0.00 | 0.00 | 82 | 1017.3 |
| 20260903085204 | 67 | 264 | 7.8 | 15.6 | 0.00 | 0.00 | 0.00 | 82 | 1017.3 |
| 20260903084703 | 67 | 237 | 6.1 | 13.0 | 0.00 | 0.00 | 0.00 | 82 | 1017.4 |
| 20260903084203 | 67 | 250 | 8.7 | 13.9 | 0.00 | 0.00 | 0.00 | 82 | 1017.3 |
| 20260903083717 | 67 | 206 | 6.1 | 16.5 | 0.00 | 0.00 | 0.00 | 82 | 1017.2 |
| 20260903083159 | 67 | 228 | 9.6 | 16.5 | 0.00 | 0.00 | 0.00 | 83 | 1017.1 |
| 20260903082701 | 67 | 243 | 7.0 | 13.0 | 0.00 | 0.00 | 0.00 | 84 | 1017.0 |
| 20260903082158 | 66 | 220 | 9.6 | 13.0 | 0.00 | 0.00 | 0.00 | 84 | 1017.0 |
| 20260903081701 | 66 | 220 | 6.1 | 11.3 | 0.00 | 0.00 | 0.00 | 84 | 1016.9 |
| 20260903081158 | 66 | 217 | 7.8 | 11.3 | 0.00 | 0.00 | 0.00 | 85 | 1017.2 |
| 20260903080659 | 66 | 241 | 5.2 | 11.3 | 0.00 | 0.00 | 0.00 | 85 | 1017.3 |
| 20260903080158 | 66 | 248 | 5.2 | 11.3 | 0.00 | 0.00 | 0.00 | 85 | 1017.4 |
| 20260903080046 | 66 | 257 | 3.5 | 8.7 | 0.00 | 0.00 | 0.00 | 85 | 1017.4 |
| 20260903075155 | 66 | 230 | 5.2 | 11.3 | 0.00 | 0.00 | 0.00 | 84 | 1017.4 |
| 20260903074653 | 66 | 230 | 7.0 | 11.3 | 0.00 | 0.00 | 0.00 | 84 | 1017.5 |
| 20260903074153 | 66 | 214 | 7.0 | 11.3 | 0.00 | 0.00 | 0.00 | 84 | 1017.3 |
| 20260903073655 | 66 | 216 | 5.2 | 13.9 | 0.00 | 0.00 | 0.00 | 84 | 1017.4 |
| 20260903073150 | 66 | 247 | 7.0 | 13.9 | 0.00 | 0.00 | 0.00 | 83 | 1017.3 |
| 20260903072651 | 66 | 254 | 6.1 | 13.0 | 0.00 | 0.00 | 0.00 | 83 | 1017.5 |
| 20260903072539 | 66 | 281 | 3.5 | 13.0 | 0.00 | 0.00 | 0.00 | 83 | 1017.4 |
| 20260903071653 | 66 | 279 | 5.2 | 13.9 | 0.00 | 0.00 | 0.00 | 81 | 1017.3 |
| 20260903071152 | 66 | 196 | 7.8 | 13.9 | 0.00 | 0.00 | 0.00 | 81 | 1017.3 |
| 20260903070648 | 66 | 258 | 4.3 | 12.2 | 0.00 | 0.00 | 0.00 | 81 | 1017.3 |
| 20260903070538 | 66 | 213 | 7.0 | 10.4 | 0.00 | 0.00 | 0.00 | 80 | 1017.2 |
| 20260903065648 | 66 | 216 | 5.2 | 11.3 | 0.00 | 0.00 | 0.00 | 80 | 1017.1 |
| 20260903065146 | 66 | 238 | 5.2 | 12.2 | 0.00 | 0.00 | 0.00 | 80 | 1017.1 |
| 20260903064648 | 66 | 212 | 7.8 | 12.2 | 0.00 | 0.00 | 0.00 | 80 | 1017.1 |
| 20260903064149 | 66 | 203 | 4.3 | 11.3 | 0.00 | 0.00 | 0.00 | 80 | 1017.1 |
| 20260903063648 | 66 | 227 | 6.1 | 11.3 | 0.00 | 0.00 | 0.00 | 79 | 1017.2 |
| 20260903063145 | 66 | 228 | 5.2 | 11.3 | 0.00 | 0.00 | 0.00 | 79 | 1017.0 |
| 20260903062646 | 66 | 248 | 7.8 | 9.6 | 0.00 | 0.00 | 0.00 | 79 | 1016.9 |
| 20260903062145 | 0 | 0.0 | 0.0 | 0.00 | 0.00 | 0.00 | |||
| 20260903061643 | 0 | 0.0 | 0.0 | 0.00 | 0.00 | 0.00 | |||
| 20260903061147 | 0 | 0.0 | 0.0 | 0.00 | 0.00 | 0.00 | |||
| 20260903060634 | 0 | 0.0 | 0.0 | 0.00 | 0.00 | 0.00 | |||
| 20260903060132 | 0 | 0.0 | 10.4 | 0.00 | 0.00 | 0.00 | |||
| 20260903055636 | 66 | 231 | 7.0 | 10.4 | 0.00 | 0.01 | 0.00 | 78 | 1016.7 |
| 20260903055453 | 66 | 241 | 6.1 | 10.4 | 0.00 | 0.01 | 0.00 | 78 | 1016.8 |
| 20260903054627 | 66 | 245 | 6.1 | 10.4 | 0.00 | 0.01 | 0.00 | 78 | 1016.7 |
| 20260903054129 | 66 | 223 | 7.0 | 13.0 | 0.00 | 0.01 | 0.00 | 78 | 1016.6 |
| 20260903053626 | 66 | 207 | 7.0 | 13.0 | 0.00 | 0.01 | 0.00 | 77 | 1016.5 |
| 20260903053407 | 66 | 248 | 8.7 | 13.0 | 0.00 | 0.01 | 0.00 | 77 | 1017.0 |
| 20260903053255 | 66 | 241 | 7.0 | 13.0 | 0.00 | 0.01 | 0.00 | 77 | 1016.7 |
| 20260903052127 | 66 | 195 | 7.0 | 11.3 | 0.00 | 0.01 | 0.00 | 77 | 1016.9 |
| 20260903052008 | 66 | 254 | 5.2 | 11.3 | 0.00 | 0.01 | 0.00 | 76 | 1016.7 |
| 20260903051127 | 66 | 219 | 7.0 | 11.3 | 0.00 | 0.01 | 0.00 | 76 | 1016.8 |
| 20260903050639 | 66 | 176 | 6.1 | 11.3 | 0.00 | 0.01 | 0.00 | 76 | 1016.8 |
| 20260903050128 | 66 | 220 | 6.1 | 9.6 | 0.00 | 0.01 | 0.00 | 75 | 1017.0 |
| 20260903045626 | 66 | 228 | 5.2 | 10.4 | 0.00 | 0.01 | 0.00 | 75 | 1016.8 |
| 20260903045127 | 66 | 216 | 6.1 | 13.0 | 0.00 | 0.01 | 0.00 | 75 | 1016.7 |
| 20260903044625 | 66 | 214 | 7.0 | 13.0 | 0.00 | 0.01 | 0.00 | 75 | 1016.5 |
| 20260903044506 | 66 | 234 | 7.8 | 11.3 | 0.00 | 0.01 | 0.00 | 74 | 1016.6 |
| 20260903044008 | 66 | 204 | 6.1 | 12.2 | 0.00 | 0.01 | 0.00 | 74 | 1016.6 |
| 20260903043125 | 66 | 266 | 7.0 | 12.2 | 0.00 | 0.01 | 0.00 | 74 | 1016.7 |
| 20260903042625 | 66 | 217 | 7.8 | 11.3 | 0.00 | 0.01 | 0.00 | 74 | 1016.9 |
| 20260903042125 | 66 | 247 | 7.0 | 11.3 | 0.00 | 0.01 | 0.00 | 74 | 1016.9 |
| 20260903041623 | 66 | 228 | 5.2 | 13.0 | 0.00 | 0.01 | 0.00 | 73 | 1016.9 |
| 20260903041511 | 67 | 216 | 7.0 | 13.0 | 0.00 | 0.01 | 0.00 | 73 | 1017.0 |
| 20260903040624 | 67 | 203 | 6.1 | 11.3 | 0.00 | 0.01 | 0.00 | 73 | 1017.0 |